GS-1

Last updated on Fri Dec 19 2025 00:02:54 GMT+0000 (Coordinated Universal Time)

1 56372U 23060C 25351.92672836 -.00000066 00000+0 00000+0 0 9994 2 56372 2.2589 82.0011 0004134 245.1136 167.7347 1.00305565 5721
UTC large
Height (km)
Speed (km/s)
/
Latitude / Longitude
Inclination (degrees)
Orbital Period (minutes)
Azimuth
Elevation
Range (km)
Doppler Factor

Next 0 passes for location: London (51.5072 / 0.1276)

Sorry there are no passes over London.